Multibeam Report for RR1010


Ship Name: Roger Revelle
Chief Scientist: Graber, Hans
University of Miami
Source Organization: Rolling Deck to Repository
Start Date: 2010-07-31
End Date: 2010-08-12


View ISO Metadata

Visit the full NCEI Bathymetry Viewer


Multibeam Bathymetry

Cruise Details

Project: Air-Sea Interactions in Typhoon Conditions
Instrument: Kongsberg EM122

Data Quality

Number of Files: 135
Number of Records: 69408
BATHYMETRY DATA Quantity Percentage
Number of Beams 29983824 100%
Number of Good Beams 29000845 96.72%
Number of Zero Beams 0 0%
Number of Flagged Beams 982979 3.28%
AMPLITUDE DATA Quantity Percentage
Number of Beams 29983824 100%
Number of Good Beams 29000845 96.72%
Number of Zero Beams 0 0%
Number of Flagged Beams 982979 3.28%
SIDESCAN DATA Quantity Percentage
Number of Pixels 71072768 100%
Number of Good Pixels 63781145 89.74%
Number of Zero Pixels 0 0%
Number of Flagged Pixels 7291623 10.26%

Navigation Totals

Total Time: 238.9184 hours
Total Track Length: 2580.3813 km
Average Speed: 10.8 km/hr (5.8315 knots)

Cruise Bounds

Northern Extent: 22.049458
Southern Extent: 18.897673
Western Extent: 120.34283
Eastern Extent: 127.657524

Limits

Minimum Sonar Depth 1.8003 Maximum Sonar Depth 9.5059
Minimum Altitude 678.688 Maximum Altitude 7203.4067
Minimum Depth 617.0681 Maximum Depth 7981.8589
Minimum Amplitude 0 Maximum Amplitude 0
Minimum Sidescan 0 Maximum Sidescan 2.56

File Information

Full Resolution Bathymetry as collected (raw): 131

Files File Size Description
0000_20100731_193222_RV_Revelle.all.mb58.gz 4.18MB Kongsberg multibeam vendor format
0001_20100731_194715_RV_Revelle.all.mb58.gz 92.88MB Kongsberg multibeam vendor format
0002_20100731_214717_RV_Revelle.all.mb58.gz 83.83MB Kongsberg multibeam vendor format
0003_20100731_234725_RV_Revelle.all.mb58.gz 49.04MB Kongsberg multibeam vendor format
0004_20100801_014722_RV_Revelle.all.mb58.gz 41.57MB Kongsberg multibeam vendor format
0005_20100801_034715_RV_Revelle.all.mb58.gz 28.43MB Kongsberg multibeam vendor format
0006_20100801_045446_RV_Revelle.all.mb58.gz 36.53MB Kongsberg multibeam vendor format
0007_20100801_065455_RV_Revelle.all.mb58.gz 36.50MB Kongsberg multibeam vendor format
0008_20100801_085448_RV_Revelle.all.mb58.gz 37.31MB Kongsberg multibeam vendor format
0009_20100801_105459_RV_Revelle.all.mb58.gz 36.42MB Kongsberg multibeam vendor format
0010_20100801_125458_RV_Revelle.all.mb58.gz 36.61MB Kongsberg multibeam vendor format
0011_20100801_145502_RV_Revelle.all.mb58.gz 36.34MB Kongsberg multibeam vendor format
0012_20100801_165454_RV_Revelle.all.mb58.gz 35.59MB Kongsberg multibeam vendor format
0013_20100801_185459_RV_Revelle.all.mb58.gz 37.02MB Kongsberg multibeam vendor format
0014_20100801_205451_RV_Revelle.all.mb58.gz 36.43MB Kongsberg multibeam vendor format
0015_20100801_225454_RV_Revelle.all.mb58.gz 36.77MB Kongsberg multibeam vendor format
0016_20100802_005455_RV_Revelle.all.mb58.gz 38.68MB Kongsberg multibeam vendor format
0017_20100802_025457_RV_Revelle.all.mb58.gz 26.26MB Kongsberg multibeam vendor format
0018_20100802_080507_RV_Revelle.all.mb58.gz 37.95MB Kongsberg multibeam vendor format
0019_20100802_100512_RV_Revelle.all.mb58.gz 38.23MB Kongsberg multibeam vendor format
0020_20100802_120513_RV_Revelle.all.mb58.gz 38.33MB Kongsberg multibeam vendor format
0021_20100802_140508_RV_Revelle.all.mb58.gz 39.22MB Kongsberg multibeam vendor format
0022_20100802_160511_RV_Revelle.all.mb58.gz 39.19MB Kongsberg multibeam vendor format
0023_20100802_180515_RV_Revelle.all.mb58.gz 39.28MB Kongsberg multibeam vendor format
0024_20100802_200511_RV_Revelle.all.mb58.gz 6.74MB Kongsberg multibeam vendor format
0025_20100802_203419_RV_Revelle.all.mb58.gz 7.88MB Kongsberg multibeam vendor format
0026_20100802_212707_RV_Revelle.all.mb58.gz 7.75MB Kongsberg multibeam vendor format
0027_20100802_215032_RV_Revelle.all.mb58.gz 436.1KB Kongsberg multibeam vendor format
0028_20100802_215521_RV_Revelle.all.mb58.gz 1.23MB Kongsberg multibeam vendor format
0029_20100802_234036_RV_Revelle.all.mb58.gz 39.60MB Kongsberg multibeam vendor format
0030_20100803_014036_RV_Revelle.all.mb58.gz 38.12MB Kongsberg multibeam vendor format
0031_20100803_034039_RV_Revelle.all.mb58.gz 38.91MB Kongsberg multibeam vendor format
0032_20100803_054044_RV_Revelle.all.mb58.gz 38.22MB Kongsberg multibeam vendor format
0033_20100803_074038_RV_Revelle.all.mb58.gz 39.31MB Kongsberg multibeam vendor format
0034_20100803_094041_RV_Revelle.all.mb58.gz 40.31MB Kongsberg multibeam vendor format
0035_20100803_114048_RV_Revelle.all.mb58.gz 40.29MB Kongsberg multibeam vendor format
0036_20100803_134048_RV_Revelle.all.mb58.gz 39.11MB Kongsberg multibeam vendor format
0037_20100803_154043_RV_Revelle.all.mb58.gz 39.05MB Kongsberg multibeam vendor format
0038_20100803_174041_RV_Revelle.all.mb58.gz 39.01MB Kongsberg multibeam vendor format
0039_20100803_194043_RV_Revelle.all.mb58.gz 31.28MB Kongsberg multibeam vendor format
0040_20100803_224015_RV_Revelle.all.mb58.gz 40.77MB Kongsberg multibeam vendor format
0041_20100804_004021_RV_Revelle.all.mb58.gz 42.10MB Kongsberg multibeam vendor format
0042_20100804_024025_RV_Revelle.all.mb58.gz 40.56MB Kongsberg multibeam vendor format
0043_20100804_044025_RV_Revelle.all.mb58.gz 38.55MB Kongsberg multibeam vendor format
0044_20100804_064018_RV_Revelle.all.mb58.gz 39.00MB Kongsberg multibeam vendor format
0045_20100804_084018_RV_Revelle.all.mb58.gz 37.96MB Kongsberg multibeam vendor format
0046_20100804_122106_RV_Revelle.all.mb58.gz 260.8KB Kongsberg multibeam vendor format
0047_20100804_122711_RV_Revelle.all.mb58.gz 39.42MB Kongsberg multibeam vendor format
0048_20100804_142713_RV_Revelle.all.mb58.gz 39.53MB Kongsberg multibeam vendor format
0049_20100804_162724_RV_Revelle.all.mb58.gz 39.44MB Kongsberg multibeam vendor format
0050_20100804_182712_RV_Revelle.all.mb58.gz 39.58MB Kongsberg multibeam vendor format
0051_20100804_202714_RV_Revelle.all.mb58.gz 39.76MB Kongsberg multibeam vendor format
0052_20100804_222712_RV_Revelle.all.mb58.gz 38.70MB Kongsberg multibeam vendor format
0053_20100805_002711_RV_Revelle.all.mb58.gz 36.67MB Kongsberg multibeam vendor format
0054_20100805_022723_RV_Revelle.all.mb58.gz 36.24MB Kongsberg multibeam vendor format
0055_20100805_042714_RV_Revelle.all.mb58.gz 40.52MB Kongsberg multibeam vendor format
0056_20100805_062717_RV_Revelle.all.mb58.gz 39.05MB Kongsberg multibeam vendor format
0057_20100805_082722_RV_Revelle.all.mb58.gz 38.40MB Kongsberg multibeam vendor format
0058_20100805_102722_RV_Revelle.all.mb58.gz 38.82MB Kongsberg multibeam vendor format
0059_20100805_122720_RV_Revelle.all.mb58.gz 36.61MB Kongsberg multibeam vendor format
0060_20100805_142719_RV_Revelle.all.mb58.gz 38.57MB Kongsberg multibeam vendor format
0061_20100805_162720_RV_Revelle.all.mb58.gz 38.92MB Kongsberg multibeam vendor format
0062_20100805_182715_RV_Revelle.all.mb58.gz 38.69MB Kongsberg multibeam vendor format
0063_20100805_202724_RV_Revelle.all.mb58.gz 38.81MB Kongsberg multibeam vendor format
0064_20100805_222711_RV_Revelle.all.mb58.gz 39.55MB Kongsberg multibeam vendor format
0065_20100806_002711_RV_Revelle.all.mb58.gz 39.46MB Kongsberg multibeam vendor format
0066_20100806_022719_RV_Revelle.all.mb58.gz 39.46MB Kongsberg multibeam vendor format
0067_20100806_042719_RV_Revelle.all.mb58.gz 39.35MB Kongsberg multibeam vendor format
0068_20100806_062711_RV_Revelle.all.mb58.gz 39.29MB Kongsberg multibeam vendor format
0069_20100806_082717_RV_Revelle.all.mb58.gz 25.84MB Kongsberg multibeam vendor format
0070_20100806_120351_RV_Revelle.all.mb58.gz 39.09MB Kongsberg multibeam vendor format
0071_20100806_140401_RV_Revelle.all.mb58.gz 39.05MB Kongsberg multibeam vendor format
0072_20100806_160403_RV_Revelle.all.mb58.gz 39.41MB Kongsberg multibeam vendor format
0073_20100806_180357_RV_Revelle.all.mb58.gz 39.59MB Kongsberg multibeam vendor format
0074_20100806_200403_RV_Revelle.all.mb58.gz 38.58MB Kongsberg multibeam vendor format
0075_20100806_220359_RV_Revelle.all.mb58.gz 40.13MB Kongsberg multibeam vendor format
0076_20100807_000354_RV_Revelle.all.mb58.gz 37.19MB Kongsberg multibeam vendor format
0077_20100807_020402_RV_Revelle.all.mb58.gz 28.84MB Kongsberg multibeam vendor format
0078_20100807_040355_RV_Revelle.all.mb58.gz 28.13MB Kongsberg multibeam vendor format
0079_20100807_060402_RV_Revelle.all.mb58.gz 32.07MB Kongsberg multibeam vendor format
0080_20100807_080359_RV_Revelle.all.mb58.gz 43.71MB Kongsberg multibeam vendor format
0081_20100807_100358_RV_Revelle.all.mb58.gz 34.38MB Kongsberg multibeam vendor format
0082_20100807_120359_RV_Revelle.all.mb58.gz 34.55MB Kongsberg multibeam vendor format
0083_20100807_140409_RV_Revelle.all.mb58.gz 29.87MB Kongsberg multibeam vendor format
0084_20100807_160404_RV_Revelle.all.mb58.gz 35.88MB Kongsberg multibeam vendor format
0085_20100807_180407_RV_Revelle.all.mb58.gz 40.63MB Kongsberg multibeam vendor format
0086_20100807_200408_RV_Revelle.all.mb58.gz 39.41MB Kongsberg multibeam vendor format
0087_20100807_220407_RV_Revelle.all.mb58.gz 39.20MB Kongsberg multibeam vendor format
0088_20100808_000404_RV_Revelle.all.mb58.gz 39.10MB Kongsberg multibeam vendor format
0089_20100808_020356_RV_Revelle.all.mb58.gz 38.50MB Kongsberg multibeam vendor format
0090_20100808_040408_RV_Revelle.all.mb58.gz 33.62MB Kongsberg multibeam vendor format
0091_20100808_060359_RV_Revelle.all.mb58.gz 34.02MB Kongsberg multibeam vendor format
0092_20100808_080355_RV_Revelle.all.mb58.gz 32.85MB Kongsberg multibeam vendor format
0093_20100808_100356_RV_Revelle.all.mb58.gz 35.15MB Kongsberg multibeam vendor format
0094_20100808_120400_RV_Revelle.all.mb58.gz 37.28MB Kongsberg multibeam vendor format
0095_20100808_140355_RV_Revelle.all.mb58.gz 37.75MB Kongsberg multibeam vendor format
0096_20100808_160358_RV_Revelle.all.mb58.gz 37.24MB Kongsberg multibeam vendor format
0097_20100808_180406_RV_Revelle.all.mb58.gz 38.23MB Kongsberg multibeam vendor format
0098_20100808_200359_RV_Revelle.all.mb58.gz 19.43MB Kongsberg multibeam vendor format
0099_20100808_220358_RV_Revelle.all.mb58.gz 38.25MB Kongsberg multibeam vendor format
0100_20100809_000356_RV_Revelle.all.mb58.gz 38.94MB Kongsberg multibeam vendor format
0101_20100809_020358_RV_Revelle.all.mb58.gz 38.46MB Kongsberg multibeam vendor format
0102_20100809_040359_RV_Revelle.all.mb58.gz 38.69MB Kongsberg multibeam vendor format
0103_20100809_060404_RV_Revelle.all.mb58.gz 38.75MB Kongsberg multibeam vendor format
0104_20100809_080407_RV_Revelle.all.mb58.gz 39.03MB Kongsberg multibeam vendor format
0105_20100809_100400_RV_Revelle.all.mb58.gz 38.90MB Kongsberg multibeam vendor format
0106_20100809_120359_RV_Revelle.all.mb58.gz 39.21MB Kongsberg multibeam vendor format
0107_20100809_140405_RV_Revelle.all.mb58.gz 38.07MB Kongsberg multibeam vendor format
0108_20100809_160359_RV_Revelle.all.mb58.gz 38.71MB Kongsberg multibeam vendor format
0109_20100809_180355_RV_Revelle.all.mb58.gz 38.80MB Kongsberg multibeam vendor format
0110_20100809_200402_RV_Revelle.all.mb58.gz 38.64MB Kongsberg multibeam vendor format
0111_20100809_220359_RV_Revelle.all.mb58.gz 39.08MB Kongsberg multibeam vendor format
0112_20100810_000357_RV_Revelle.all.mb58.gz 37.30MB Kongsberg multibeam vendor format
0113_20100810_020406_RV_Revelle.all.mb58.gz 39.49MB Kongsberg multibeam vendor format
0114_20100810_040406_RV_Revelle.all.mb58.gz 37.68MB Kongsberg multibeam vendor format
0115_20100810_060407_RV_Revelle.all.mb58.gz 37.28MB Kongsberg multibeam vendor format
0116_20100810_080405_RV_Revelle.all.mb58.gz 36.45MB Kongsberg multibeam vendor format
0117_20100810_100359_RV_Revelle.all.mb58.gz 38.63MB Kongsberg multibeam vendor format
0118_20100810_120359_RV_Revelle.all.mb58.gz 37.50MB Kongsberg multibeam vendor format
0119_20100810_140404_RV_Revelle.all.mb58.gz 34.56MB Kongsberg multibeam vendor format
0120_20100810_160359_RV_Revelle.all.mb58.gz 44.96MB Kongsberg multibeam vendor format
0121_20100810_180400_RV_Revelle.all.mb58.gz 39.91MB Kongsberg multibeam vendor format
0122_20100810_200359_RV_Revelle.all.mb58.gz 37.29MB Kongsberg multibeam vendor format
0123_20100810_215535_RV_Revelle.all.mb58.gz 20.6KB Kongsberg multibeam vendor format
0124_20100810_215559_RV_Revelle.all.mb58.gz 41.26MB Kongsberg multibeam vendor format
0125_20100810_235607_RV_Revelle.all.mb58.gz 19.38MB Kongsberg multibeam vendor format
0126_20100811_002941_RV_Revelle.all.mb58.gz 40.02MB Kongsberg multibeam vendor format
0127_20100811_022949_RV_Revelle.all.mb58.gz 40.53MB Kongsberg multibeam vendor format
0128_20100811_042944_RV_Revelle.all.mb58.gz 24.48MB Kongsberg multibeam vendor format
0129_20100811_153052_RV_Revelle.all.mb58.gz 50.16MB Kongsberg multibeam vendor format
0130_20100811_163357_RV_Revelle.all.mb58.gz 35.84MB Kongsberg multibeam vendor format

Metadata Files: 3

Files File Size Description
RR1010_Multibeam.xml NGDC created ISO metadata
em122_bag_info.tar.gz 6.5KB Additional cruise information
xbt_bag_info.tar.gz 1.5KB Additional cruise information

Ancillary Files: 1

Files File Size Description
xbt.tar.gz 192.5KB Expendable Bathythermograph (XBT) data